This is the latest recevied weather packets stored in our database for station/object N4LLZ-13. If no packets are shown the sender has not sent any weather packets the latest 10 day(s).
| Time | Temp. | Humidity | Pressure | Rain* | Wind** | Luminosity | Snow |
|---|---|---|---|---|---|---|---|
| 1787622810 | 23.89° C | 70% | 1015.6 hPa | 0 mm | - | - | - |
| 1787622509 | 23.89° C | 67% | 1015.4 hPa | 0 mm | - | - | - |
| 1787622209 | 24.44° C | 65% | 1015.4 hPa | 0 mm | - | - | - |
| 1787621908 | 24.44° C | 63% | 1015.3 hPa | 0 mm | - | - | - |
| 1787621607 | 25° C | 61% | 1015.2 hPa | 0 mm | - | - | - |
| 1787621306 | 25° C | 62% | 1015.3 hPa | 0 mm | - | - | - |
| 1787621005 | 25° C | 60% | 1015.2 hPa | 0 mm | - | - | - |
| 1787620704 | 25° C | 59% | 1015.1 hPa | 0 mm | - | - | - |
| 1787620404 | 25.56° C | 59% | 1015 hPa | 0 mm | - | - | - |
| 1787620103 | 25.56° C | 59% | 1015 hPa | 0 mm | - | - | - |
| 1787619802 | 25.56° C | 58% | 1015 hPa | 0 mm | - | - | - |
| 1787619501 | 25.56° C | 57% | 1014.9 hPa | 0 mm | - | - | - |
| 1787619200 | 25.56° C | 57% | 1014.9 hPa | 0 mm | - | - | - |
| 1787618899 | 25° C | 58% | 1014.8 hPa | 0 mm | - | - | - |
| 1787618599 | 25° C | 59% | 1014.7 hPa | 0 mm | - | - | - |
| 1787618298 | 25° C | 59% | 1014.7 hPa | 0 mm | - | - | - |
| 1787617997 | 25.56° C | 61% | 1014.6 hPa | 0 mm | - | - | - |
| 1787617696 | 25.56° C | 61% | 1014.6 hPa | 0 mm | - | - | - |
| 1787617395 | 26.11° C | 60% | 1014.5 hPa | 0 mm | - | - | - |
| 1787617094 | 26.11° C | 59% | 1014.4 hPa | 0 mm | - | - | - |
| 1787616793 | 26.67° C | 57% | 1014.4 hPa | 0 mm | - | - | - |
| 1787616493 | 27.22° C | 55% | 1014.4 hPa | 0 mm | - | - | - |
| 1787616192 | 27.22° C | 54% | 1014.3 hPa | 0 mm | - | - | - |
| 1787615891 | 27.78° C | 53% | 1014.3 hPa | 0 mm | - | - | - |
| 1787615590 | 27.78° C | 50% | 1014.1 hPa | 0 mm | - | - | - |
* Rain latest hour (hover to see other rain measurements)
** Current wind speed in m/s (hover to see current wind gust speed)